STARLINK-37085, 68252

Orbit data source: Space-Track

STARLINK-37085, 68252 is a payload satellite owned by SpaceX/Seattle (US) in LEO that was launched on Tue, 17 Mar 2026 UTC via an FALCON 9 launch vehicle from the Air Force Eastern Test Range (AFETR). Payload-class satellites include a variety of spacecraft equipped with specific instruments for various scientific and technological missions. These include communications satellites like Starlink; space stations such as the ISS; scientific satellites like the Hubble; Earth observation satellites from companies like Planet Labs, Umbra, and HawkEye 360; GPS; miniature CubeSats for education and research; and military/defense satellites.

Loading next visibility...
Identifier
68252, 2026-054W
Orbit
LEO
Country
Flag of USUS
Related business
Manufacturer
SpaceX/Seattle
Mission
Operational spacecraft
Bus & Motor
STARLINK V2MO, Unknown motor
Mass
575 kg wet, ~530 kg dry
Launch date (UTC)
2026-03-17 (2 months ago)
Launch vehicle
FALCON 9
Launch site
Air Force Eastern Test Range (AFETR)
Object type
Payload
Rocket body
Debris
Shape & HBR
Unknown shape, 17.7 m
Radar Cross Section
RCS unknown

Expand to show TLE details & history
Last TLE update: 9 hours ago

TLE from 9 hours ago
0 STARLINK-37085
1 68252U 26054W   26145.38775022  .00063204  00000-0  11332-2 0  9999
2 68252  53.1567 296.4287 0002824  81.3440 278.7889 15.49359229 10791
Epoch: 2026-05-25T09:18Z
TLE epoch observation values (Epoch: 2026-05-25T09:18:21.619Z)
Latitude
0.00001°
Longitude
-86.13764°
Altitude
419.213 km
Speed
7.661 km/s
True Right ascension
19h 45m 42s
True Declination
0° 00' 00"
Sunlit
Object was in full shadow at epoch
Visualization orbit readout
Latitude
Unknown
Longitude
Unknown
Altitude
Unknown
Speed
Unknown
Apparent Right ascension
Unknown
Apparent Declination
Unknown
Sunlit
N/A
Visualization observer readout
Local Sidereal Time
03:03:47
Azimuth
Unknown
Elevation
Unknown
Doppler factor
Unknown
Orbital elements
Apogee altitude
420.778 km
Perigee altitude
416.939 km
Semi-major axis
6,796.995 km
Eccentricity
0.00028
Inclination
53.1567°
RAAN
296.4287°
Arg. of periapsis
81.344°
True anomaly
278.75692°
Mean anomaly
278.7889°
Eccentric anomaly
278.77291°
Mean motion
3.87318 °/min
Orbital period
92.95 mins
BSTAR
0.0011332
Loading maneuver chart data...
Computing Atmospheric mass density...
Loading historical data...
Loading historical data...
Loading historical data...
Loading historical data...
Loading historical data...
Loading historical data...
Loading historical data...

Documentation

Showing up to 5 results
|